• In India
  • List of Countries
  • For 7 days
  • Water Temperature
  • Satellite Maps
  • Weather Map
  • Weather Widgets
  • user-avatar
    Login

    Hourly Weather Serowe

    Today, 19 June, Tuesday

    Time Temperature Precipitation Wind Pressure Humidity
    00:00 +14°C° 0 mm 0 mps 668 mmHg 39%
    01:00 +14°C° 0 mm 0 mps 668 mmHg 40%
    02:00 +13°C° 0 mm 0 mps 668 mmHg 41%
    03:00 +13°C° 0 mm 0 mps 668 mmHg 41%
    04:00 +14°C° 0 mm 1 mps 668 mmHg 42%
    05:00 +13°C° 0 mm 1 mps 668 mmHg 42%
    06:00 +14°C° 0 mm 1 mps 668 mmHg 40%
    07:00 +15°C° 0 mm 1 mps 669 mmHg 37%
    08:00 +16°C° 0 mm 1 mps 669 mmHg 35%
    09:00 +20°C° 0 mm 1 mps 670 mmHg 28%
    10:00 +23°C° 0 mm 1 mps 671 mmHg 22%
    11:00 +26°C° 0 mm 1 mps 671 mmHg 16%
    12:00 +27°C° 0 mm 1 mps 671 mmHg 14%
    13:00 +28°C° 0 mm 1 mps 671 mmHg 12%
    14:00 +28°C° 0 mm 1 mps 670 mmHg 11%
    15:00 +27°C° 0 mm 1 mps 670 mmHg 12%
    16:00 +27°C° 0 mm 1 mps 670 mmHg 12%
    17:00 +26°C° 0 mm 1 mps 669 mmHg 13%
    18:00 +24°C° 0 mm 1 mps 669 mmHg 14%
    19:00 +22°C° 0 mm 1 mps 669 mmHg 16%
    20:00 +20°C° 0 mm 1 mps 669 mmHg 17%
    21:00 +19°C° 0 mm 1 mps 669 mmHg 18%
    22:00 +16°C° 0 mm 0 mps 669 mmHg 18%
    23:00 +16°C° 0 mm 0 mps 669 mmHg 19%

    Tomorrow, 20 June, Wednesday

    Time Temperature Precipitation Wind Pressure Humidity
    00:00 +15°C° 0 mm 0 mps 669 mmHg 19%
    01:00 +16°C° 0 mm 1 mps 669 mmHg 20%
    02:00 +16°C° 0 mm 1 mps 669 mmHg 20%
    03:00 +15°C° 0 mm 1 mps 669 mmHg 20%
    04:00 +15°C° 0 mm 1 mps 669 mmHg 20%
    05:00 +15°C° 0 mm 1 mps 669 mmHg 20%
    06:00 +15°C° 0 mm 1 mps 669 mmHg 20%
    07:00 +16°C° 0 mm 1 mps 670 mmHg 19%
    08:00 +18°C° 0 mm 1 mps 670 mmHg 19%
    09:00 +20°C° 0 mm 2 mps 671 mmHg 16%
    10:00 +24°C° 0 mm 2 mps 672 mmHg 13%
    11:00 +27°C° 0 mm 3 mps 673 mmHg 11%
    12:00 +27°C° 0 mm 3 mps 673 mmHg 10%
    13:00 +28°C° 0 mm 3 mps 672 mmHg 10%
    14:00 +29°C° 0 mm 3 mps 672 mmHg 9%
    15:00 +28°C° 0 mm 3 mps 671 mmHg 10%
    16:00 +27°C° 0 mm 3 mps 671 mmHg 11%
    17:00 +26°C° 0 mm 3 mps 671 mmHg 12%
    18:00 +24°C° 0 mm 3 mps 671 mmHg 15%
    19:00 +21°C° 0 mm 3 mps 671 mmHg 18%
    20:00 +18°C° 0 mm 4 mps 671 mmHg 21%
    21:00 +18°C° 0 mm 4 mps 671 mmHg 27%
    22:00 +17°C° 0 mm 4 mps 671 mmHg 33%
    23:00 +15°C° 0 mm 4 mps 672 mmHg 39%

    Day after tomorrow, 21 June, Thursday

    Time Temperature Precipitation Wind Pressure Humidity
    00:00 +14°C° 0 mm 4 mps 671 mmHg 51%
    01:00 +13°C° 0 mm 3 mps 671 mmHg 64%
    02:00 +13°C° 0 mm 3 mps 671 mmHg 76%
    03:00 +12°C° 0 mm 3 mps 671 mmHg 82%
    04:00 +12°C° 0 mm 3 mps 671 mmHg 87%
    05:00 +12°C° 0 mm 4 mps 671 mmHg 93%
    06:00 +12°C° 0 mm 4 mps 672 mmHg 91%
    07:00 +13°C° 0 mm 5 mps 672 mmHg 89%
    08:00 +13°C° 0 mm 5 mps 673 mmHg 87%
    09:00 +14°C° 0 mm 5 mps 673 mmHg 81%
    10:00 +15°C° 0 mm 5 mps 673 mmHg 75%
    11:00 +16°C° 0 mm 5 mps 674 mmHg 69%
    12:00 +19°C° 0 mm 5 mps 673 mmHg 61%
    13:00 +21°C° 0 mm 4 mps 673 mmHg 53%
    14:00 +22°C° 0 mm 4 mps 673 mmHg 44%
    15:00 +22°C° 0 mm 4 mps 672 mmHg 45%
    16:00 +21°C° 0 mm 3 mps 672 mmHg 46%
    17:00 +21°C° 0 mm 3 mps 672 mmHg 46%
    18:00 +19°C° 0 mm 3 mps 672 mmHg 55%
    19:00 +17°C° 0 mm 3 mps 672 mmHg 63%
    20:00 +16°C° 0 mm 3 mps 672 mmHg 72%
    21:00 +15°C° 0 mm 2 mps 672 mmHg 76%
    22:00 +14°C° 0 mm 2 mps 672 mmHg 80%
    23:00 +14°C° 0 mm 2 mps 672 mmHg 84%

    22 June, Friday

    Time Temperature Precipitation Wind Pressure Humidity
    00:00 +13°C° 0 mm 2 mps 672 mmHg 86%
    01:00 +13°C° 0 mm 2 mps 671 mmHg 87%
    02:00 +12°C° 0 mm 2 mps 671 mmHg 88%
    03:00 +12°C° 0 mm 2 mps 671 mmHg 89%
    04:00 +12°C° 0 mm 2 mps 671 mmHg 91%
    05:00 +12°C° 0 mm 1 mps 671 mmHg 92%
    06:00 +12°C° 0 mm 2 mps 671 mmHg 90%
    07:00 +13°C° 0 mm 2 mps 672 mmHg 88%
    08:00 +13°C° 0 mm 2 mps 672 mmHg 86%
    09:00 +16°C° 0 mm 2 mps 673 mmHg 72%
    10:00 +18°C° 0 mm 3 mps 673 mmHg 59%
    11:00 +21°C° 0 mm 3 mps 674 mmHg 45%
    12:00 +22°C° 0 mm 3 mps 673 mmHg 39%
    13:00 +24°C° 0 mm 3 mps 672 mmHg 34%
    14:00 +25°C° 0 mm 3 mps 672 mmHg 28%
    15:00 +24°C° 0 mm 3 mps 672 mmHg 28%
    16:00 +24°C° 0 mm 3 mps 671 mmHg 29%
    17:00 +23°C° 0 mm 2 mps 671 mmHg 29%
    18:00 +21°C° 0 mm 2 mps 671 mmHg 34%
    19:00 +19°C° 0 mm 2 mps 671 mmHg 39%
    20:00 +17°C° 0 mm 2 mps 671 mmHg 44%
    21:00 +16°C° 0 mm 2 mps 671 mmHg 46%
    22:00 +16°C° 0 mm 1 mps 671 mmHg 49%
    23:00 +15°C° 0 mm 1 mps 671 mmHg 51%

    23 June, Saturday

    Time Temperature Precipitation Wind Pressure Humidity
    00:00 +15°C° 0 mm 1 mps 671 mmHg 53%
    01:00 +15°C° 0 mm 1 mps 671 mmHg 55%
    02:00 +14°C° 0 mm 1 mps 670 mmHg 57%
    03:00 +14°C° 0 mm 1 mps 670 mmHg 58%
    04:00 +14°C° 0 mm 1 mps 670 mmHg 60%
    05:00 +13°C° 0 mm 1 mps 670 mmHg 61%
    06:00 +14°C° 0 mm 1 mps 671 mmHg 60%
    07:00 +14°C° 0 mm 1 mps 671 mmHg 59%
    08:00 +15°C° 0 mm 2 mps 672 mmHg 59%
    09:00 +17°C° 0 mm 2 mps 672 mmHg 53%
    10:00 +19°C° 0 mm 3 mps 673 mmHg 48%
    11:00 +22°C° 0 mm 4 mps 673 mmHg 42%
    12:00 +22°C° 0 mm 4 mps 672 mmHg 39%
    13:00 +24°C° 0 mm 3 mps 672 mmHg 35%
    14:00 +25°C° 0 mm 3 mps 671 mmHg 32%
    15:00 +24°C° 0 mm 3 mps 671 mmHg 32%
    16:00 +24°C° 0 mm 3 mps 671 mmHg 33%
    17:00 +22°C° 0 mm 3 mps 670 mmHg 34%
    18:00 +21°C° 0 mm 2 mps 670 mmHg 39%
    19:00 +19°C° 0 mm 2 mps 670 mmHg 44%
    20:00 +17°C° 0 mm 2 mps 670 mmHg 49%
    21:00 +17°C° 0 mm 2 mps 670 mmHg 53%
    22:00 +16°C° 0 mm 2 mps 670 mmHg 56%
    23:00 +15°C° 0 mm 2 mps 670 mmHg 60%

    24 June, Sunday

    Time Temperature Precipitation Wind Pressure Humidity
    00:00 +15°C° 0 mm 2 mps 670 mmHg 62%
    01:00 +14°C° 0 mm 1 mps 670 mmHg 65%
    02:00 +14°C° 0 mm 1 mps 670 mmHg 67%
    03:00 +14°C° 0 mm 1 mps 670 mmHg 70%
    04:00 +13°C° 0 mm 1 mps 670 mmHg 72%
    05:00 +13°C° 0 mm 1 mps 669 mmHg 74%
    06:00 +13°C° 0 mm 1 mps 670 mmHg 72%
    07:00 +14°C° 0 mm 1 mps 670 mmHg 70%
    08:00 +14°C° 0 mm 1 mps 671 mmHg 68%
    09:00 +17°C° 0 mm 2 mps 671 mmHg 57%
    10:00 +20°C° 0 mm 2 mps 672 mmHg 45%
    11:00 +23°C° 0 mm 2 mps 673 mmHg 33%
    12:00 +24°C° 0 mm 3 mps 672 mmHg 29%
    13:00 +25°C° 0 mm 3 mps 672 mmHg 25%
    14:00 +26°C° 0 mm 4 mps 671 mmHg 20%
    15:00 +25°C° 0 mm 3 mps 671 mmHg 21%
    16:00 +25°C° 0 mm 3 mps 671 mmHg 22%
    17:00 +24°C° 0 mm 3 mps 671 mmHg 23%
    18:00 +21°C° 0 mm 3 mps 671 mmHg 27%
    19:00 +19°C° 0 mm 2 mps 671 mmHg 31%
    20:00 +18°C° 0 mm 2 mps 671 mmHg 35%
    21:00 +17°C° 0 mm 2 mps 671 mmHg 38%
    22:00 +16°C° 0 mm 2 mps 671 mmHg 40%
    23:00 +16°C° 0 mm 2 mps 670 mmHg 42%
    Show more